Time,TemperatureF,DewpointF,PressureIn,WindDirection,WindDirectionDegrees,WindSpeedMPH,WindSpeedGustMPH,Humidity,HourlyPrecipIn,Conditions,Clouds,dailyrainin,SoftwareType,DateUTC
2013-01-13 00:03:00,28.0,-99.9,-100.00,NNW,340,10.0,-999.0,-999,0.00,,,0.02,,2013-01-13 06:03:00,
2013-01-13 00:12:00,28.0,-99.9,-100.00,NNW,340,10.0,-999.0,-999,0.00,,,0.02,,2013-01-13 06:12:00,
2013-01-13 00:22:00,28.0,-99.9,-100.00,NNW,340,10.0,-999.0,-999,0.00,,,0.02,,2013-01-13 06:22:00,
2013-01-13 00:33:00,27.0,-99.9,-100.00,NNW,338,11.0,-999.0,-999,0.00,,,0.02,,2013-01-13 06:33:00,
2013-01-13 00:43:00,27.0,-99.9,-100.00,NNW,338,11.0,-999.0,-999,0.00,,,0.02,,2013-01-13 06:43:00,
2013-01-13 00:53:00,27.0,-99.9,-100.00,NNW,338,11.0,-999.0,-999,0.00,,,0.02,,2013-01-13 06:53:00,
2013-01-13 01:00:00,26.0,-99.9,-100.00,NNW,328,10.0,-999.0,-999,0.00,,,0.02,,2013-01-13 07:00:00,
2013-01-13 01:02:00,26.0,-99.9,-100.00,NW,317,6.0,-999.0,-999,0.00,,,0.02,,2013-01-13 07:02:00,
2013-01-13 01:12:00,26.0,-99.9,-100.00,NW,317,6.0,-999.0,-999,0.00,,,0.02,,2013-01-13 07:12:00,
2013-01-13 01:22:00,26.0,-99.9,-100.00,NW,317,6.0,-999.0,-999,0.00,,,0.02,,2013-01-13 07:22:00,
2013-01-13 01:33:00,26.0,-99.9,-100.00,NNW,328,10.0,-999.0,-999,0.00,,,0.02,,2013-01-13 07:33:00,
2013-01-13 01:42:00,26.0,-99.9,-100.00,NNW,328,10.0,-999.0,-999,0.00,,,0.02,,2013-01-13 07:42:00,
2013-01-13 01:53:00,26.0,-99.9,-100.00,NNW,328,10.0,-999.0,-999,0.00,,,0.02,,2013-01-13 07:53:00,
2013-01-13 02:33:00,26.0,-99.9,-100.00,NNW,333,13.0,-999.0,-999,0.00,,,0.02,,2013-01-13 08:33:00,
2013-01-13 02:42:00,26.0,-99.9,-100.00,NNW,333,13.0,-999.0,-999,0.00,,,0.02,,2013-01-13 08:42:00,
2013-01-13 02:53:00,26.0,-99.9,-100.00,NNW,333,13.0,-999.0,-999,0.00,,,0.02,,2013-01-13 08:53:00,
2013-01-13 03:02:00,26.0,-99.9,-100.00,NW,326,11.0,-999.0,-999,0.00,,,0.02,,2013-01-13 09:02:00,
2013-01-13 03:12:00,26.0,-99.9,-100.00,NW,326,11.0,-999.0,-999,0.00,,,0.02,,2013-01-13 09:12:00,
2013-01-13 03:22:00,26.0,-99.9,-100.00,NW,326,11.0,-999.0,-999,0.00,,,0.02,,2013-01-13 09:22:00,
2013-01-13 03:32:00,26.0,-99.9,-100.00,NNW,334,11.0,-999.0,-999,0.00,,,0.02,,2013-01-13 09:32:00,
2013-01-13 03:43:00,26.0,-99.9,-100.00,NNW,334,11.0,-999.0,-999,0.00,,,0.02,,2013-01-13 09:43:00,
2013-01-13 03:53:00,26.0,-99.9,-100.00,NNW,334,11.0,-999.0,-999,0.00,,,0.02,,2013-01-13 09:53:00,
2013-01-13 04:03:00,25.0,-99.9,-100.00,NW,320,11.0,-999.0,-999,0.00,,,0.02,,2013-01-13 10:03:00,
2013-01-13 04:12:00,25.0,-99.9,-100.00,NW,320,11.0,-999.0,-999,0.00,,,0.02,,2013-01-13 10:12:00,
2013-01-13 04:22:00,25.0,-99.9,-100.00,NW,320,11.0,-999.0,-999,0.00,,,0.02,,2013-01-13 10:22:00,
2013-01-13 04:33:00,25.0,-99.9,-100.00,NNW,338,10.0,-999.0,-999,0.00,,,0.02,,2013-01-13 10:33:00,
2013-01-13 04:42:00,25.0,-99.9,-100.00,NNW,338,10.0,-999.0,-999,0.00,,,0.02,,2013-01-13 10:42:00,
2013-01-13 04:53:00,25.0,-99.9,-100.00,NNW,338,10.0,-999.0,-999,0.00,,,0.02,,2013-01-13 10:53:00,
2013-01-13 05:02:00,24.0,-99.9,-100.00,NW,324,12.0,-999.0,-999,0.00,,,0.02,,2013-01-13 11:02:00,
2013-01-13 05:12:00,24.0,-99.9,-100.00,NW,324,12.0,-999.0,-999,0.00,,,0.02,,2013-01-13 11:12:00,
2013-01-13 05:22:00,24.0,-99.9,-100.00,NW,324,12.0,-999.0,-999,0.00,,,0.02,,2013-01-13 11:22:00,
2013-01-13 05:33:00,24.0,-99.9,-100.00,NW,320,10.0,-999.0,-999,0.00,,,0.02,,2013-01-13 11:33:00,
2013-01-13 05:43:00,24.0,-99.9,-100.00,NW,320,10.0,-999.0,-999,0.00,,,0.02,,2013-01-13 11:43:00,
2013-01-13 05:53:00,24.0,-99.9,-100.00,NW,320,10.0,-999.0,-999,0.00,,,0.02,,2013-01-13 11:53:00,
2013-01-13 06:03:00,23.0,-99.9,-100.00,NW,323,16.0,-999.0,-999,0.00,,,0.02,,2013-01-13 12:03:00,
2013-01-13 06:12:00,23.0,-99.9,-100.00,NW,323,16.0,-999.0,-999,0.00,,,0.02,,2013-01-13 12:12:00,
2013-01-13 06:22:00,23.0,-99.9,-100.00,NW,323,16.0,-999.0,-999,0.00,,,0.02,,2013-01-13 12:22:00,
2013-01-13 06:30:00,23.0,-99.9,-100.00,NW,315,10.0,-999.0,-999,0.00,,,0.02,,2013-01-13 12:30:00,
2013-01-13 06:33:00,23.0,-99.9,-100.00,NNW,329,12.0,-999.0,-999,0.00,,,0.02,,2013-01-13 12:33:00,
2013-01-13 06:42:00,23.0,-99.9,-100.00,NNW,329,12.0,-999.0,-999,0.00,,,0.02,,2013-01-13 12:42:00,
2013-01-13 06:53:00,23.0,-99.9,-100.00,NNW,329,12.0,-999.0,-999,0.00,,,0.02,,2013-01-13 12:53:00,
2013-01-13 07:03:00,23.0,-99.9,-100.00,NW,315,10.0,-999.0,-999,0.00,,,0.02,,2013-01-13 13:03:00,
2013-01-13 07:12:00,23.0,-99.9,-100.00,NW,315,10.0,-999.0,-999,0.00,,,0.02,,2013-01-13 13:12:00,
2013-01-13 07:22:00,23.0,-99.9,-100.00,NW,315,10.0,-999.0,-999,0.00,,,0.02,,2013-01-13 13:22:00,
2013-01-13 08:03:00,22.0,-99.9,-100.00,NW,320,9.0,-999.0,-999,0.00,,,0.02,,2013-01-13 14:03:00,
2013-01-13 08:13:00,22.0,-99.9,-100.00,NW,320,9.0,-999.0,-999,0.00,,,0.02,,2013-01-13 14:13:00,
2013-01-13 08:23:00,22.0,-99.9,-100.00,NW,320,9.0,-999.0,-999,0.00,,,0.02,,2013-01-13 14:23:00,
2013-01-13 08:33:00,21.0,-99.9,-100.00,NW,309,5.0,-999.0,-999,0.00,,,0.02,,2013-01-13 14:33:00,
2013-01-13 08:43:00,21.0,-99.9,-100.00,NW,309,5.0,-999.0,-999,0.00,,,0.02,,2013-01-13 14:43:00,
2013-01-13 08:53:00,21.0,-99.9,-100.00,NW,309,5.0,-999.0,-999,0.00,,,0.02,,2013-01-13 14:53:00,
2013-01-13 09:03:00,20.0,-99.9,-100.00,NW,310,7.0,-999.0,-999,0.00,,,0.02,,2013-01-13 15:03:00,
2013-01-13 09:13:00,20.0,-99.9,-100.00,NW,310,7.0,-999.0,-999,0.00,,,0.02,,2013-01-13 15:13:00,
2013-01-13 09:23:00,20.0,-99.9,-100.00,NW,310,7.0,-999.0,-999,0.00,,,0.02,,2013-01-13 15:23:00,
2013-01-13 09:33:00,20.0,-99.9,-100.00,NW,310,7.0,-999.0,-999,0.00,,,0.02,,2013-01-13 15:33:00,
2013-01-13 09:43:00,20.0,-99.9,-100.00,NW,310,7.0,-999.0,-999,0.00,,,0.02,,2013-01-13 15:43:00,
2013-01-13 09:53:00,20.0,-99.9,-100.00,NW,310,7.0,-999.0,-999,0.00,,,0.02,,2013-01-13 15:53:00,
2013-01-13 10:04:00,21.0,-99.9,-100.00,NW,322,13.0,-999.0,-999,0.00,,,0.02,,2013-01-13 16:04:00,
2013-01-13 10:13:00,21.0,-99.9,-100.00,NW,322,13.0,-999.0,-999,0.00,,,0.02,,2013-01-13 16:13:00,
2013-01-13 10:23:00,21.0,-99.9,-100.00,NW,322,13.0,-999.0,-999,0.00,,,0.02,,2013-01-13 16:23:00,
2013-01-13 10:34:00,21.0,-99.9,-100.00,NNW,338,18.0,-999.0,-999,0.00,,,0.02,,2013-01-13 16:34:00,
2013-01-13 10:43:00,21.0,-99.9,-100.00,NNW,338,18.0,-999.0,-999,0.00,,,0.02,,2013-01-13 16:43:00,
2013-01-13 10:53:00,21.0,-99.9,-100.00,NNW,338,18.0,-999.0,-999,0.00,,,0.02,,2013-01-13 16:53:00,
2013-01-13 11:03:00,20.0,-99.9,-100.00,NW,313,10.0,-999.0,-999,0.00,,,0.02,,2013-01-13 17:03:00,
2013-01-13 11:13:00,20.0,-99.9,-100.00,NW,313,10.0,-999.0,-999,0.00,,,0.02,,2013-01-13 17:13:00,
2013-01-13 11:23:00,20.0,-99.9,-100.00,NW,313,10.0,-999.0,-999,0.00,,,0.02,,2013-01-13 17:23:00,
2013-01-13 11:33:00,20.0,-99.9,-100.00,NW,305,8.0,-999.0,-999,0.00,,,0.02,,2013-01-13 17:33:00,
2013-01-13 11:43:00,20.0,-99.9,-100.00,NW,305,8.0,-999.0,-999,0.00,,,0.02,,2013-01-13 17:43:00,
2013-01-13 11:53:00,20.0,-99.9,-100.00,NW,305,8.0,-999.0,-999,0.00,,,0.02,,2013-01-13 17:53:00,
2013-01-13 12:03:00,20.0,-99.9,-100.00,NW,311,8.0,-999.0,-999,0.00,,,0.02,,2013-01-13 18:03:00,
2013-01-13 12:12:00,20.0,-99.9,-100.00,NW,311,8.0,-999.0,-999,0.00,,,0.02,,2013-01-13 18:12:00,
2013-01-13 12:23:00,20.0,-99.9,-100.00,NW,311,8.0,-999.0,-999,0.00,,,0.02,,2013-01-13 18:23:00,
2013-01-13 12:33:00,20.0,-99.9,-100.00,NW,324,8.0,-999.0,-999,0.00,,,0.02,,2013-01-13 18:33:00,
2013-01-13 12:43:00,20.0,-99.9,-100.00,NW,324,8.0,-999.0,-999,0.00,,,0.02,,2013-01-13 18:43:00,
2013-01-13 12:54:00,20.0,-99.9,-100.00,NW,324,8.0,-999.0,-999,0.00,,,0.02,,2013-01-13 18:54:00,
2013-01-13 13:03:00,21.0,-99.9,-100.00,NW,319,12.0,-999.0,-999,0.00,,,0.02,,2013-01-13 19:03:00,
2013-01-13 13:12:00,21.0,-99.9,-100.00,NW,319,12.0,-999.0,-999,0.00,,,0.02,,2013-01-13 19:12:00,
2013-01-13 13:23:00,21.0,-99.9,-100.00,NW,319,12.0,-999.0,-999,0.00,,,0.02,,2013-01-13 19:23:00,
2013-01-13 13:33:00,21.0,-99.9,-100.00,NNW,333,15.0,-999.0,-999,0.00,,,0.02,,2013-01-13 19:33:00,
2013-01-13 13:43:00,21.0,-99.9,-100.00,NNW,333,15.0,-999.0,-999,0.00,,,0.02,,2013-01-13 19:43:00,
2013-01-13 13:53:00,21.0,-99.9,-100.00,NNW,333,15.0,-999.0,-999,0.00,,,0.02,,2013-01-13 19:53:00,
2013-01-13 14:03:00,21.0,-99.9,-100.00,NW,325,15.0,-999.0,-999,0.00,,,0.02,,2013-01-13 20:03:00,
2013-01-13 14:12:00,21.0,-99.9,-100.00,NW,325,15.0,-999.0,-999,0.00,,,0.02,,2013-01-13 20:12:00,
2013-01-13 14:23:00,21.0,-99.9,-100.00,NW,325,15.0,-999.0,-999,0.00,,,0.02,,2013-01-13 20:23:00,
2013-01-13 14:33:00,22.0,-99.9,-100.00,NW,315,9.0,-999.0,-999,0.00,,,0.02,,2013-01-13 20:33:00,
2013-01-13 14:43:00,22.0,-99.9,-100.00,NW,315,9.0,-999.0,-999,0.00,,,0.02,,2013-01-13 20:43:00,
2013-01-13 14:53:00,22.0,-99.9,-100.00,NW,315,9.0,-999.0,-999,0.00,,,0.02,,2013-01-13 20:53:00,
2013-01-13 15:03:00,23.0,-99.9,-100.00,NW,315,9.0,-999.0,-999,0.00,,,0.02,,2013-01-13 21:03:00,
2013-01-13 15:13:00,23.0,-99.9,-100.00,NW,315,9.0,-999.0,-999,0.00,,,0.02,,2013-01-13 21:13:00,
2013-01-13 15:23:00,23.0,-99.9,-100.00,NW,315,9.0,-999.0,-999,0.00,,,0.02,,2013-01-13 21:23:00,
2013-01-13 15:33:00,23.0,-99.9,-100.00,NW,312,10.0,-999.0,-999,0.00,,,0.02,,2013-01-13 21:33:00,
2013-01-13 15:43:00,23.0,-99.9,-100.00,NW,312,10.0,-999.0,-999,0.00,,,0.02,,2013-01-13 21:43:00,
2013-01-13 15:53:00,23.0,-99.9,-100.00,NW,312,10.0,-999.0,-999,0.00,,,0.02,,2013-01-13 21:53:00,
2013-01-13 16:03:00,23.0,-99.9,-100.00,NW,312,8.0,-999.0,-999,0.00,,,0.02,,2013-01-13 22:03:00,
2013-01-13 16:13:00,23.0,-99.9,-100.00,NW,312,8.0,-999.0,-999,0.00,,,0.02,,2013-01-13 22:13:00,
2013-01-13 16:23:00,23.0,-99.9,-100.00,NW,312,8.0,-999.0,-999,0.00,,,0.02,,2013-01-13 22:23:00,
2013-01-13 16:33:00,23.0,-99.9,-100.00,NW,312,7.0,-999.0,-999,0.00,,,0.02,,2013-01-13 22:33:00,
2013-01-13 16:43:00,23.0,-99.9,-100.00,NW,312,7.0,-999.0,-999,0.00,,,0.02,,2013-01-13 22:43:00,
2013-01-13 16:53:00,23.0,-99.9,-100.00,NW,312,7.0,-999.0,-999,0.00,,,0.02,,2013-01-13 22:53:00,
2013-01-13 17:00:00,22.0,-99.9,-100.00,NW,311,3.0,-999.0,-999,0.00,,,0.02,,2013-01-13 23:00:00,
2013-01-13 17:03:00,23.0,-99.9,-100.00,NW,309,8.0,-999.0,-999,0.00,,,0.02,,2013-01-13 23:03:00,
2013-01-13 17:12:00,23.0,-99.9,-100.00,NW,309,8.0,-999.0,-999,0.00,,,0.02,,2013-01-13 23:12:00,
2013-01-13 17:23:00,23.0,-99.9,-100.00,NW,309,8.0,-999.0,-999,0.00,,,0.02,,2013-01-13 23:23:00,
2013-01-13 17:33:00,22.0,-99.9,-100.00,NW,311,3.0,-999.0,-999,0.00,,,0.02,,2013-01-13 23:33:00,
2013-01-13 17:43:00,22.0,-99.9,-100.00,NW,311,3.0,-999.0,-999,0.00,,,0.02,,2013-01-13 23:43:00,
2013-01-13 17:53:00,22.0,-99.9,-100.00,NW,311,3.0,-999.0,-999,0.00,,,0.02,,2013-01-13 23:53:00,
2013-01-13 18:33:00,19.0,-99.9,-100.00,WSW,239,4.0,-999.0,-999,0.00,,,0.02,,2013-01-14 00:33:00,
2013-01-13 18:43:00,19.0,-99.9,-100.00,WSW,239,4.0,-999.0,-999,0.00,,,0.02,,2013-01-14 00:43:00,
2013-01-13 18:53:00,19.0,-99.9,-100.00,WSW,239,4.0,-999.0,-999,0.00,,,0.02,,2013-01-14 00:53:00,
2013-01-13 19:03:00,19.0,-99.9,-100.00,WSW,242,3.0,-999.0,-999,0.00,,,0.01,,2013-01-14 01:03:00,
2013-01-13 19:13:00,19.0,-99.9,-100.00,WSW,242,3.0,-999.0,-999,0.00,,,0.01,,2013-01-14 01:13:00,
2013-01-13 19:23:00,19.0,-99.9,-100.00,WSW,242,3.0,-999.0,-999,0.00,,,0.01,,2013-01-14 01:23:00,
2013-01-13 19:33:00,18.0,-99.9,-100.00,SSW,213,2.0,-999.0,-999,0.00,,,0.01,,2013-01-14 01:33:00,
2013-01-13 19:43:00,18.0,-99.9,-100.00,SSW,213,2.0,-999.0,-999,0.00,,,0.01,,2013-01-14 01:43:00,
2013-01-13 19:53:00,18.0,-99.9,-100.00,SSW,213,2.0,-999.0,-999,0.00,,,0.01,,2013-01-14 01:53:00,
2013-01-13 20:03:00,19.0,-99.9,-100.00,SW,222,3.0,-999.0,-999,0.00,,,0.00,,2013-01-14 02:03:00,
2013-01-13 20:12:00,19.0,-99.9,-100.00,SW,222,3.0,-999.0,-999,0.00,,,0.00,,2013-01-14 02:12:00,
2013-01-13 20:23:00,19.0,-99.9,-100.00,SW,222,3.0,-999.0,-999,0.00,,,0.00,,2013-01-14 02:23:00,
2013-01-13 20:33:00,19.0,-99.9,-100.00,SW,229,3.0,-999.0,-999,0.00,,,0.00,,2013-01-14 02:33:00,
2013-01-13 20:43:00,19.0,-99.9,-100.00,SW,229,3.0,-999.0,-999,0.00,,,0.00,,2013-01-14 02:43:00,
2013-01-13 20:53:00,19.0,-99.9,-100.00,SW,229,3.0,-999.0,-999,0.00,,,0.00,,2013-01-14 02:53:00,
2013-01-13 21:03:00,20.0,-99.9,-100.00,WSW,257,4.0,-999.0,-999,0.00,,,0.00,,2013-01-14 03:03:00,
2013-01-13 21:12:00,20.0,-99.9,-100.00,WSW,257,4.0,-999.0,-999,0.00,,,0.00,,2013-01-14 03:12:00,
2013-01-13 21:22:00,20.0,-99.9,-100.00,WSW,257,4.0,-999.0,-999,0.00,,,0.00,,2013-01-14 03:22:00,
2013-01-13 21:33:00,19.0,-99.9,-100.00,West,269,5.0,-999.0,-999,0.00,,,0.00,,2013-01-14 03:33:00,
2013-01-13 21:43:00,19.0,-99.9,-100.00,West,269,5.0,-999.0,-999,0.00,,,0.00,,2013-01-14 03:43:00,
2013-01-13 21:53:00,19.0,-99.9,-100.00,West,269,5.0,-999.0,-999,0.00,,,0.00,,2013-01-14 03:53:00,
2013-01-13 22:03:00,18.0,-99.9,-100.00,WSW,257,4.0,-999.0,-999,0.00,,,0.00,,2013-01-14 04:03:00,
2013-01-13 22:12:00,18.0,-99.9,-100.00,WSW,257,4.0,-999.0,-999,0.00,,,0.00,,2013-01-14 04:12:00,
2013-01-13 22:22:00,18.0,-99.9,-100.00,WSW,257,4.0,-999.0,-999,0.00,,,0.00,,2013-01-14 04:22:00,
2013-01-13 22:32:00,19.0,-99.9,-100.00,WNW,289,6.0,-999.0,-999,0.00,,,0.00,,2013-01-14 04:32:00,
2013-01-13 22:42:00,19.0,-99.9,-100.00,WNW,289,6.0,-999.0,-999,0.00,,,0.00,,2013-01-14 04:42:00,
2013-01-13 22:53:00,19.0,-99.9,-100.00,WNW,289,6.0,-999.0,-999,0.00,,,0.00,,2013-01-14 04:53:00,
2013-01-13 23:04:00,19.0,-99.9,-100.00,WNW,290,6.0,-999.0,-999,0.00,,,0.00,,2013-01-14 05:04:00,
2013-01-13 23:12:00,19.0,-99.9,-100.00,WNW,290,6.0,-999.0,-999,0.00,,,0.00,,2013-01-14 05:12:00,
2013-01-13 23:22:00,19.0,-99.9,-100.00,WNW,290,6.0,-999.0,-999,0.00,,,0.00,,2013-01-14 05:22:00,
2013-01-13 23:33:00,19.0,-99.9,-100.00,WNW,284,4.0,-999.0,-999,0.00,,,0.00,,2013-01-14 05:33:00,
2013-01-13 23:43:00,19.0,-99.9,-100.00,WNW,284,4.0,-999.0,-999,0.00,,,0.00,,2013-01-14 05:43:00,
2013-01-13 23:53:00,19.0,-99.9,-100.00,WNW,284,4.0,-999.0,-999,0.00,,,0.00,,2013-01-14 05:53:00,